Other Public Products
Issued by NWS Grand Forks, ND

Home | Current Version | Previous Version | Graphics & Text | Print | Product List | Glossary On
Versions: 1 2 3 4 5 6 7 8 9 10 11 12 13 14 15 16 17 18 19 20 21 22 23 24 25 26 27 28 29 30 31 32 33 34 35 36 37 38 39 40 41 42 43 44 45 46 47 48 49 50
000
FPUS83 KFGF 221010
OPUFGF
PRAIRIE TO PINES WEATHER ROUNDUP
NATIONAL WEATHER SERVICE EASTERN NORTH DAKOTA/GRAND FORKS ND
500 AM CDT MON SEP 22 2014

 **SATELLITE DATA USED TO AUGMENT SKY COVER AT AUTOMATED STATIONS**
 *****  WEATHER ACROSS EASTERN NORTH DAKOTA  *****

CITY           SKY/WX    TMP DP  RH WIND       PRES   REMARKS
GRAND FORKS    CLEAR     45  44  97 S5        30.14S
GRAND FORKS AF CLEAR     46  46  99 W6        30.14S
GRAND CITY NWS   N/A     46 N/A N/A S5          N/A
BUXTON         NOT AVBL
DEVILS LAKE    CLEAR     55  45  67 SW9       30.13S
FARGO          CLEAR     48  45  89 S8        30.18S
WAHPETON ARPT  SUNNY     43  41  93 SE3       30.21S
$$

 *****  WEATHER ACROSS CENTRAL AND WESTERN NORTH DAKOTA  *****

CITY           SKY/WX    TMP DP  RH WIND       PRES   REMARKS
JAMESTOWN      CLEAR     48  44  86 S6        30.17F
BISMARCK       CLEAR     44  41  89 E3        30.18S
MINOT          CLEAR     54  42  64 S8        30.11S
MINOT AFB      CLEAR     48  43  82 S7        30.10S
GARRISON         N/A     46  42  86 CALM      30.14S
WILLISTON      CLEAR     42  36  79 CALM      30.08F
DICKINSON      CLEAR     47  39  74 S13       30.11F
HETTINGER      CLEAR     48  38  68 SE7       30.15F
$$

 *****  OTHER OBSERVATIONS NORTHEAST NORTH DAKOTA  *****

CITY           SKY/WX    TMP DP  RH WIND       PRES   REMARKS
WALHALLA       FAIR      54  48  82 SW5       30.11S
LANGDON        FAIR      45  43  93 SW7       30.13S
CAVALIER       FAIR      50  46  87 SW6       30.11F
GRAFTON        FAIR      41  41 100 S5        30.13S
CANDO          FAIR      43  41  93 CALM      30.14S
FORT TOTTEN      N/A     50  43  78 S5        29.95
ROLLA          FAIR      48  43  81 SW9       30.14S
RUGBY          FAIR      45  41  87 CALM      30.13S
 ***** THE ABOVE OBSERVATIONS ARE NON NWS ARE NOT QUALITY
        CONTROLLED AND MAY MIS-REPORT RAIN FOR SNOW...
$$

 *****  OTHER OBSERVATIONS SOUTHEAST NORTH DAKOTA *****

CITY           SKY/WX    TMP DP  RH WIND       PRES   REMARKS
COOPERSTOWN    NOT AVBL
VALLEY CITY    FAIR      41  41 100 S5        30.19R
OAKES            N/A     41  41 100 S6        30.21S
GWINNER        SUNNY     48  46  93 SW7       30.22S
SHEYENNE NWR     N/A     42  42  98 SW5       29.95
BUFFALO        NOT AVBL
WYNDMERE         N/A     43  43 100 SW2         N/A
 ***** THE ABOVE OBSERVATIONS ARE NON NWS ARE NOT QUALITY
       CONTROLLED AND MAY MIS-REPORT RAIN FOR SNOW...
$$

  *****  WEATHER ACROSS NORTHERN MINNESOTA  *****

CITY           SKY/WX    TMP DP  RH WIND       PRES   REMARKS
FLAG ISLAND    CLEAR     52  48  87 SW15      30.08S
WARROAD        CLEAR     48  45  87 SW8       30.13S
ROSEAU         CLEAR     50  45  81 SW9       30.12S
HALLOCK        CLEAR     46  45  93 S8        30.12S
THF RVR FALLS  CLEAR     48  45  87 S7        30.16S
HALSTAD          N/A     45  43  93 S6          N/A
FOSSTON        CLEAR     43  43 100 S6        30.19R
BAUDETTE       CLEAR     47  45  93 SW5       30.13S
WASKISH        CLEAR     43  43 100 CALM      30.16S FOG
CROOKSTON      CLEAR     45  45 100 S6        30.17S
$$
  *****  WEATHER ACROSS CENTRAL AND WEST MINNESOTA  *****

CITY           SKY/WX    TMP DP  RH WIND       PRES   REMARKS
BEMIDJI        CLEAR     43  43  98 SW3       30.18S
PARK RAPIDS    CLEAR     43  42  97 SW5       30.20S
WADENA         CLEAR     39  37  93 CALM      30.21S
DETROIT LAKES  CLEAR     48  46  93 S3        30.20F
MOORHEAD       CLEAR     48  48 100 S6        30.20S
FERGUS FALLS   CLEAR     46  45  93 SE6       30.22S
ELBOW LAKE     FAIR      45  44  98 S7        30.21F
MORRIS MN      CLEAR     45  43  93 S5        30.22S FOG
STAPLES        CLEAR     39  39 100 CALM      30.22S FOG
WHEATON        CLEAR     45  43  93 SW5       30.24R
$$
  *****  WEATHER ELSEWHERE ACROSS MINNESOTA  *****

CITY           SKY/WX    TMP DP  RH WIND       PRES   REMARKS
DULUTH         CLEAR     44  42  93 NW6       30.18R
INTRNTL FALLS  CLEAR     41  40  96 CALM      30.14S
ELY            FOG       46  45  93 W6        30.16S VSB 3/4
CLOQUET        PTCLDY    46  45  93 W7        30.19R
BRAINERD       FOG       40  40 100 S3        30.22R VSB 3/4
HIBBING        FOG       37  35  92 CALM      30.18S VSB 1/2
ALEXANDRIA     CLEAR     49  47  93 SW9       30.24S
SAINT CLOUD    PTCLDY    45  42  89 CALM      30.23R FOG
MINNEAPOLIS    CLEAR     49  47  93 CALM      30.23R
$$

  *****  WEATHER ACROSS SOUTH DAKOTA  *****

CITY           SKY/WX    TMP DP  RH WIND       PRES   REMARKS
SIOUX FALLS    CLEAR     45  42  89 CALM      30.28R
BROOKINGS      NOT AVBL
WATERTOWN      CLEAR     44  43  96 S5        30.25S
HURON          CLEAR     45  41  86 SE5       30.24S
SISSETON         N/A     52  48  86 W6        30.21R
ABERDEEN       CLEAR     37  36  96 SE7       30.23S
MITCHELL       CLEAR     43  42  97 SE5       30.26S
PIERRE         CLEAR     49  41  74 S8        30.21S
MOBRIDGE       CLEAR     46  45  96 SE7       30.18S
RAPID CITY     CLEAR     47  38  71 SE9       30.16F
$$

  *****  SOME WEATHER IN NEARBY STATES *****

CITY           SKY/WX    TMP DP  RH WIND       PRES   REMARKS
GLASGOW MT     CLEAR     50  35  56 E13       29.99F
GREAT FALLS MT CLEAR     56  44  64 S10       29.95F
CHEYENNE WY    CLOUDY    51  42  71 S3        30.26F
SCOTTSBLUFF NE CLOUDY    57  43  59 E10       30.20F
OMAHA NE       CLEAR     49  47  93 CALM      30.30S
DES MOINES IA  CLEAR     50  47  89 CALM      30.27R
DAVENPORT IA   CLEAR     41  38  89 NW6       30.25R
CHICAGO IL     PTCLDY    47  41  80 NW8       30.20R
EAU CLAIRE WI  CLEAR     43  42  97 SW3       30.21S
LA CROSSE WI   MOCLDY    50  48  93 S8        30.23S FOG
$$

  *****  SOME NATIONAL WEATHER *****

CITY           SKY/WX    TMP DP  RH WIND       PRES   REMARKS
LA GUARDIA NY  PTCLDY    66  53  63 W12G18    29.73R
RALEIGH NC     MOCLDY    67  57  70 CALM      29.95R
ATLANTA GA     MOCLDY    69  60  73 NW7       30.00R
NEW ORLEANS LA PTCLDY    73  70  90 CALM      30.00S
OKLAHOMA CITY  CLEAR     61  49  64 NE8       30.24R
ALBUQUERQUE NM CLOUDY    66  55  67 E12       30.29S
SALT LAKE CITY CLOUDY    63  57  81 SE6       30.13S
LOS ANGELES CA PTCLDY    67  63  87 CALM      29.96F
BOISE ID       CLOUDY    63  58  83 SE10      30.04S
SEATTLE WA     MOCLDY    62  56  80 S5        29.97S
$$

*** WEATHER ACROSS MANITOBA...SASKATCHEWAN AND ONTARIO ***
                ***ONTARIO***

CITY           SKY/WX    TMP DP  RH WIND       PRES   REMARKS
GERALDTON      PTCLDY    36  36 100 W2        30.00F
THUNDER BAY    PTCLDY    41  41 100 CALM      30.09R
SIOUX LOOKOUT  NOT AVBL
TORONTO        MOCLDY    50  43  76 NW17G23   29.93R
BIG TROUT LK   CLOUDY    50  46  87 W6        29.82R
PICKLE LAKE    NOT AVBL
DRYDEN         CLEAR     48  48 100 SW8       30.06F
KENORA         CLEAR     48  46  93 SW7       30.08F
$$
                *** MANITOBA***

CITY           SKY/WX    TMP DP  RH WIND       PRES   REMARKS
BRANDON        CLEAR     43  41  93 W7        30.09S
DAUPHIN        CLEAR     55  43  62 SW9       30.01F
ISLAND LAKE    PTCLDY    52  48  87 CALM      29.83S
PILOT MOUND    NOT AVBL
THE PAS        CLEAR     59  48  67 W13       29.88R
THOMPSON       PTCLDY    43  43 100 W5        29.79R
WINNIPEG       CLEAR     50  45  81 SW9       30.07F
LYNN LAKE      CLEAR     48  46  93 VRB2      29.81R
CHURCHILL      CLOUDY    41  39  93 NE12G17   29.85R
GILLAM         CLOUDY    52  52 100 W6        29.74R
$$
                ***SASKATCHEWAN***

CITY           SKY/WX    TMP DP  RH WIND       PRES   REMARKS
ESTEVAN        CLEAR     43  39  87 CALM      30.08F
KINDERSLEY     CLEAR     48  43  81 SE7       29.89F
LLOYDMINSTER   CLEAR     54  43  66 S12       29.81F
PRINCE ALBERT  CLEAR     43  41  93 S2        29.92F
REGINA         CLEAR     43  39  87 SE9       30.03F



USA.gov is the U.S. government's official web portal to all federal, state and local government web resources and services.